Regional Weather Roundup
Issued by NWS

Home | Current Version | Previous Version | Text Only | Print | Product List | Glossary Off
Versions: 1 2 3 4 5 6 7 8 9 10 11 12 13 14 15 16 17 18 19 20 21 22 23 24 25 26 27 28 29 30 31 32 33 34 35 36 37 38 39 40 41 42 43 44 45 46 47 48 49 50

000
ASUS43 KMPX 281001
RWRMN
WEATHER ROUNDUP FOR MINNESOTA
NATIONAL WEATHER SERVICE TWIN CITIES/CHANHASSEN MN
400 AM CST WED JAN 28 2015


NOTE: "FAIR" INDICATES FEW OR NO CLOUDS BELOW 12,000 FEET WITH NO
SIGNIFICANT WEATHER AND/OR OBSTRUCTIONS TO VISIBILITY. N/A MEANS
CURRENT SKY AND/OR WEATHER CONDITIONS ARE NOT AVAILABLE.

MNZ060>063-068>070-281100-
   Twin Cities Metro

CITY           SKY/WX    TMP DP  RH WIND       PRES   REMARKS
TWIN CITIES    CLOUDY    30  25  81 SE12      30.06F WCI  20
ST PAUL        CLOUDY    30  26  85 MISG      30.08F
CRYSTAL        CLOUDY    31  26  82 SE14      30.04F WCI  21
BLAINE         CLOUDY    30  28  93 SE9       30.04F WCI  22
LAKEVILLE      CLOUDY    28  27  93 SE13      30.05F WCI  18
EDEN PRAIRIE   CLOUDY    30  26  85 SE14      30.03F WCI  19
SOUTH ST PAUL  CLOUDY    30  26  85 SE6       30.07F WCI  24
LAKE ELMO      CLOUDY    30  27  86 SE9       30.08S WCI  22
$$
MNZ001>005-007-008-013>017-022>024-027-028-281100-
   Northwest Minnesota

CITY           SKY/WX    TMP DP  RH WIND       PRES   REMARKS
BEMIDJI        CLOUDY    30  28  92 SE13      29.89F WCI  20
HALLOCK        CLOUDY    34  30  86 SE10      29.84F FOG     WCI  26
ROSEAU         CLOUDY    30  27  86 SE10      29.87F WCI  21
WARROAD        CLOUDY    30  27  86 SE8       29.89F WCI  23
THIEF RVR FALL CLOUDY    30  28  93 SE9       29.85F WCI  22
CROOKSTON      CLOUDY    34  32  93 S17       29.84F WCI  23
FOSSTON        CLOUDY    30  28  93 SE9       29.85F WCI  22
DETROIT LAKES  CLOUDY    34  32  93 S15       29.85F WCI  24
MOORHEAD       CLOUDY    34  34 100 S16       29.85S WCI  23
PARK RAPIDS    CLOUDY    31  29  92 SE14      29.88F WCI  21
MAHNOMEN       CLOUDY    32  30  93 SE10      29.85F WCI  24
$$
MNZ006-009>011-018-025>026-281100-
   North Central Minnesota

CITY           SKY/WX    TMP DP  RH WIND       PRES   REMARKS
BAUDETTE       CLOUDY    28  24  85 SE7       29.90F WCI  21
FLAG ISLAND    CLOUDY    28  25  86 SE6       29.91F WCI  22
INTL FALLS     CLOUDY    26  23  88 SE7       29.95F WCI  18
WASKISH        CLOUDY    30  27  86 SE8       29.91F WCI  23
BIG FORK       CLOUDY    28  25  86 SE6       29.95F WCI  22
LONGVILLE      CLOUDY    28  27  93 SE8       29.94F WCI  20
GRAND RAPIDS   CLOUDY    27  23  86 S9        29.96F WCI  17
CRANE LAKE     CLOUDY    25  23  93 CALM      30.01F
ORR            CLOUDY    25  21  86 SE7       29.95F WCI  17
COOK           CLOUDY    25  23  93 SE5       29.98F WCI  19
WALKER         CLOUDY    29  27  92 S8        29.92F WCI  21
$$
MNZ012-019>021-037-281100-
   Northeast Minnesota

CITY           SKY/WX    TMP DP  RH WIND       PRES   REMARKS
DULUTH         CLOUDY    24  19  81 S13       30.02S WCI  12
ELY            CLOUDY    27  23  86 SE7       30.01F WCI  19
HIBBING        CLOUDY    27  22  81 VRB6      29.98F WCI  20
EVELETH        CLOUDY    27  23  86 SE8       30.00F WCI  18
DULUTH HARBOR  CLOUDY    27  21  80 S8        30.09F WCI  18
TWO HARBORS    MOCLDY    27  21  80 S6        30.04F WCI  20
SILVER BAY     CLOUDY    28  23  80 S5        30.05F WCI  23
GRAND MARAIS     N/A     31  25  78 SW12      30.10F WCI  22
G MARAIS ARPRT   N/A     25  19  80 S6        30.04F WCI  18
$$
MNZ029>031-032-039>041-046>048-054>057-064-281100-
   West Central Minnesota

CITY           SKY/WX    TMP DP  RH WIND       PRES   REMARKS
FERGUS FALLS   MOCLDY    32  30  93 S16G23    29.89S WCI  21
WHEATON        CLOUDY    30  28  93 SE18G24   29.87F WCI  18
MORRIS         CLOUDY    34  30  86 SE23      29.87F FOG     WCI  22
ALEXANDRIA     CLOUDY    32  29  88 SE20      29.89F WCI  20
ELBOW LAKE     CLOUDY    32  31  95 SE21G26   29.86F WCI  20
WADENA         CLOUDY    30  28  93 SE10      29.90  FOG     WCI  21
GLENWOOD       CLOUDY    30  30 100 SE17      29.91F FOG     WCI  18
APPLETON       MOCLDY    34  30  86 SE13G20   29.88F WCI  25
BENSON         CLOUDY    34  30  86 S14       29.91F WCI  24
ORTONVILLE     MOCLDY    30  28  93 SE16      29.85F FOG     WCI  19
MADISON        MOCLDY    36  34  93 SE17      29.87F
WILLMAR        CLOUDY    34  30  86 SE21      29.94F FOG     WCI  22
$$
MNZ033>034-036-042>043-049>051-058-059-281100-
   Central Minnesota

CITY           SKY/WX    TMP DP  RH WIND       PRES   REMARKS
ST CLOUD       CLOUDY    30  28  92 SE15      29.99F WCI  19
SAUK CENTRE    CLOUDY    31  30  96 SE15G23   29.93F WCI  20
PAYNESVILLE    CLOUDY    29  29  99 E14       29.95F FOG     WCI  18
AITKIN         CLOUDY    30  25  80 SE10      29.96F HAZE    WCI  21
PINE RIVER     CLOUDY    30  27  86 SE10      29.97F FOG     WCI  21
BRAINERD       CLOUDY    29  27  92 S12       29.95F FOG     WCI  19
STAPLES        CLOUDY    28  28 100 SE13G18   29.91F FOG     WCI  18
LONG PRAIRIE   CLOUDY    30  30 100 SE14      29.93F FOG     WCI  20
LITTLE FALLS   CLOUDY    32  28  86 SE9       29.96F FOG     WCI  24
LITCHFIELD     CLOUDY    32  32 100 SE13      29.98F WCI  22
BUFFALO        CLOUDY    31  28  88 SE8       30.02F WCI  23
MAPLE LAKE     CLOUDY    32  30  93 SE7       30.01F WCI  26
$$
MNZ037-044-045-052-053-281100-
   East Central Minnesota

CITY           SKY/WX    TMP DP  RH WIND       PRES   REMARKS
PRINCETON      CLOUDY    30  27  86 SE8       30.02F WCI  23
MORA           CLOUDY    28  25  86 S8        30.05F WCI  20
CAMBRIDGE      CLOUDY    30  23  74 SE7       30.02F WCI  23
RUSH CITY      CLOUDY    28  25  87 SE8       30.05F WCI  20
MOOSE LAKE     CLOUDY    28  23  80 S6        30.01F WCI  22
HINCKLEY       CLOUDY    28  27  93 SE8       30.04F WCI  20
CLOQUET        CLOUDY    25  21  86 CALM      30.02F
MCGREGOR       CLOUDY    28  27  93 SE8       30.00F WCI  20
$$
MNZ071>073-080-081-089-090-097-098-281100-
   Southwest Minnesota

CITY           SKY/WX    TMP DP  RH WIND       PRES   REMARKS
MONTEVIDEO     MOCLDY    32  32 100 S16       29.91F WCI  21
GRANITE FALLS  MOCLDY    32  30  93 SE17      29.92F WCI  21
CANBY          PTCLDY    32  31  96 SE10      29.87F FOG     WCI  24
MARSHALL       PTCLDY    32  27  80 SE15      29.90F WCI  22
REDWOOD FALLS  CLOUDY    33  30  88 SE20      29.94F WCI  21
OLIVIA         CLOUDY    32  32 100 SE20      29.94F FOG     WCI  20
PIPESTONE      CLEAR     34  30  86 S18       29.85F WCI  23
WINDOM         CLOUDY    30  30 100 SE14G24   29.93F FOG     WCI  20
WORTHINGTON    CLEAR     30  27  86 SE13      29.92F WCI  20
JACKSON        CLOUDY    32  30  93 SE16      29.96F WCI  21
TRACY          CLEAR     32  31  95 S14G20    29.89F WCI  22
SLAYTON        FAIR      32  30  94 SE18      29.89F WCI  20
$$
MNZ065>067-074>077-082>085-091>093-281100-
   South Central Minnesota

CITY           SKY/WX    TMP DP  RH WIND       PRES   REMARKS
MANKATO        CLOUDY    30  27  86 S16G22    30.01F WCI  19
NEW ULM        CLOUDY    30  30 100 SE15      29.98F FOG     WCI  19
ST JAMES       CLOUDY    34  30  86 SE17G24   29.99F FOG     WCI  23
FAIRMONT       CLOUDY    30  27  86 SE17      29.99F WCI  18
GLENCOE        CLOUDY    32  31  98 SE9G17    30.00F WCI  24
FARIBAULT      CLOUDY    28  27  93 SE12      30.05F WCI  18
OWATONNA       CLOUDY    28  27  93 SE15      30.04F FOG     WCI  17
WASECA         CLOUDY    30  28  93 SE16      30.04F FOG     WCI  19
ALBERT LEA     CLOUDY    28  28 100 SE17G25   30.04F FOG     WCI  16
$$
MNZ078>079-086>088-094>096-281100-
   Southeast Minnesota

CITY           SKY/WX    TMP DP  RH WIND       PRES   REMARKS
ROCHESTER      CLOUDY    25  23  92 S17       30.08F FOG     WCI  12
RED WING       CLOUDY    28  25  86 SE15      30.09F WCI  17
STANTON        CLOUDY    30  27  86 S10       30.05F WCI  21
DODGE CENTER   CLOUDY    27  27 100 S15       30.06F FOG     WCI  15
WINONA         CLOUDY    30  27  86 SE7       30.15S WCI  23
AUSTIN         CLOUDY    27  27 100 SE10G16   30.07F FOG     WCI  17
PRESTON        CLOUDY    24  22  93 S13       30.10F FOG     WCI  12
$$
ABBREVIATIONS USED IN REMARKS
   TC - TEMPERATURES IN CELSIUS
  WCI - WIND CHILL INDEX
   HX - HEAT INDEX
  VSB - VISIBILITY
$$



USA.gov is the U.S. government's official web portal to all federal, state and local government web resources and services.